Location: Cornospital
(48.0620°N, 3.3837°W)
Time: 20:17:18
(UTC+00:00)

KORONAS-FOTON - Pass Details

Date: 17 June 2021
Orbit: 506 x 530 km, 82.4° (Epoch: 02 August)

Event Time Altitude Azimuth Distance (km) Brightness Sun altitude
Exits shadow 21:21:27 - 179° (S) 2,087 6.4 -8.7°
Reaches altitude 10° 21:22:18 10° 178° (S) 1,732 6.0 -8.8°
Maximum altitude 21:26:04 65° 97° (E) 568 3.8 -9.2°
Drops below altitude 10° 21:29:50 10° 15° (NNE) 1,737 7.0 -9.6°
Sets 21:31:58 0° 13° (NNE) 2,625 8.0 -9.8°
